Regional Weather Roundup
Issued by NWS

Home | Current Version | Previous Version | Text Only | Print | Product List | Glossary On
Versions: 1 2 3 4 5 6 7 8 9 10 11 12 13 14 15 16 17 18 19 20 21 22 23 24 25 26 27 28 29 30 31 32 33 34 35 36 37 38 39 40 41 42 43 44 45 46 47 48 49 50
000
ASUS43 KLOT 171812
RWRIL

ILLINOIS REGIONAL WEATHER ROUNDUP
NATIONAL WEATHER SERVICE CHICAGO/ROMEOVILLE IL
1200 PM CST TUE JAN 17 2017

NOTE: "FAIR" INDICATES FEW OR NO CLOUDS BELOW 12,000 FEET WITH NO
SIGNIFICANT WEATHER AND/OR OBSTRUCTIONS TO VISIBILITY.

* THESE STATIONS ARE NOT UNDER NWS QUALITY CONTROL. THEY ALSO MAY NOT
  REPORT WEATHER SUCH AS PRECIPITATION OR FOG.

ILZ001-002-007-009-015-016-024-171900-
NORTHWEST ILLINOIS

CITY           SKY/WX    TMP DP  RH WIND       PRES   REMARKS
MOLINE         CLOUDY    37  34  89 W13       29.92F WCI  29
6HR MIN TEMP:  35; 6HR MAX TEMP:  38;

STERLING*      CLOUDY    37  36  96 W12       29.90F WCI  29
SAVANNA*       CLOUDY    35  34  95 W9        29.90S FOG     WCI  28
$$

ILZ003-004-008-010-011-017-018-171900-
NORTH CENTRAL ILLINOIS

CITY           SKY/WX    TMP DP  RH WIND       PRES   REMARKS
ROCKFORD       CLOUDY    36  34  92 W8        29.89F FOG     WCI  30
6HR MIN TEMP:  35; 6HR MAX TEMP:  36; 6HR PCP: TRACE;

FREEPORT*      CLOUDY    34  34  99 W6        29.89F FOG     WCI  29
ROCHELLE*      CLOUDY    36  36 100 W9        29.88S FOG     WCI  29
DE KALB*       CLOUDY    36  36  99 W12       29.87S FOG     WCI  28
$$

ILZ005-006-012>014-019>023-171900-
NORTHEAST ILLINOIS

CITY           SKY/WX    TMP DP  RH WIND       PRES   REMARKS
CHICAGO-OHARE  CLOUDY    38  36  92 W13       29.85S WCI  30
6HR MIN TEMP:  36; 6HR MAX TEMP:  39; 6HR PCP: TRACE;

CHICAGO-MIDWAY CLOUDY    37  36  96 W14       29.86F WCI  28
6HR MIN TEMP:  35; 6HR MAX TEMP:  38;

AURORA         NOT AVBL
LANSING*       CLOUDY    38  38 100 W13       29.86F WCI  30
JOLIET*        CLOUDY    38  38  99 W5        29.89S WCI  35
WAUKEGAN       CLOUDY    38  36  92 VRB5      29.83F FOG     WCI  34
6HR MIN TEMP:  36; 6HR MAX TEMP:  38;

DUPAGE AIRPORT CLOUDY    38  35  89 W9        29.85S WCI  31
6HR MIN TEMP:  36; 6HR MAX TEMP:  38;

KANKAKEE*      CLOUDY    38  38  98 W13       29.90S WCI  30
WHEELING       CLOUDY    39  36  89 W9        29.85F WCI  33
6HR MIN TEMP:  37; 6HR MAX TEMP:  39; 6HR PCP:  0.01;

MORRIS*        CLOUDY    37  36  98 W9        29.88F FOG     WCI  30
ROMEOVILLE*    CLOUDY    37  37 100 W12       29.87F WCI  29
NORTHERLY ISL    N/A     39  36  89 W8          N/A  WCI  33
$$

LMZ740>746-171900-
SOUTHERN LAKE MICHIGAN

STATION/POSITION SKY/WX   TEMP    WIND        PRES    VSBY  WAVE
                          AIR SEA DIR/SP/G                  HT/PER
                          (F)     (DEG/KT/KT) (MB)    (MI)  (FT/S)
HARRISON CRIB              40     260/ 10/ 11   N/A
BURNHAM HARBOR             39     230/  7/ 14   N/A
CALUMET HARBOR             39     230/  6/ 10 1010.7F
BURNS HARBOR               37     240/ 10/ 12 1011.9S
$$

ILZ025>027-034>036-040-047-049-050-058-095>099-171900-
WEST-CENTRAL ILLINOIS

CITY           SKY/WX    TMP DP  RH WIND       PRES   REMARKS
QUINCY         CLOUDY    37  35  92 W13       30.00F WCI  29
GALESBURG*     CLOUDY    35  35 100 W9G16     29.95S FOG     WCI  28
MACOMB*        CLOUDY    36  36 100 W14       30.00S FOG     WCI  27
JACKSONVILLE*  CLOUDY    39  37  91 W17       29.99S WCI  30
PITTSFIELD*    CLOUDY    39  37  92 W9        30.02S WCI  33
$$

ILZ028>032-037-038-041>044-048-051>054-059>061-171900-
CENTRAL ILLINOIS

CITY           SKY/WX    TMP DP  RH WIND       PRES   REMARKS
PONTIAC        CLOUDY    38  38 100 W15       29.93R WCI  30
BLOOMINGTON    CLOUDY    38  37  97 W16       29.93S FOG     WCI  29
DECATUR        CLOUDY    43  41  93 W12       29.96S
PEORIA         CLOUDY    37  36  96 W10       29.95F FOG     WCI  30
6HR MIN TEMP:  37; 6HR MAX TEMP:  41;

LACON*         CLOUDY    36  36  99 W10       29.93S WCI  29
LINCOLN*       CLOUDY    40  39  96 W8        29.96S
SPRINGFIELD    CLOUDY    41  38  89 W12       29.98S
6HR MIN TEMP:  41; 6HR MAX TEMP:  44;

TAYLORVILLE    CLOUDY    42  40  91 W12G21    29.99R
6HR MIN TEMP:  41; 6HR MAX TEMP:  43;

$$

ILZ033-039-045-046-055>057-062-063-171900-
EAST-CENTRAL ILLINOIS

CITY           SKY/WX    TMP DP  RH WIND       PRES   REMARKS
CHAMPAIGN      CLOUDY    43  40  89 W20       29.94S
RANTOUL*       CLOUDY    44  42  95 W16       29.92S
MATTOON        CLOUDY    43  40  89 W15       29.96S
PARIS*         CLOUDY    43  42  93 W12G22    29.96F
$$

ILZ079-100>102-171900-
SOUTHWEST ILLINOIS

CITY           SKY/WX    TMP DP  RH WIND       PRES   REMARKS
ALTON          CLOUDY    45  41  87 W15G23    30.03S
BELLEVILLE     CLOUDY    46  41  82 W12       30.02F
CAHOKIA*       CLOUDY    45  36  70 W10       30.04S
SPARTA*        CLOUDY    43  38  84 W10G17    30.05F
$$

ILZ064>066-069>071-074>076-080>082-084>086-088>090-092>094-171900-
SOUTH-CENTRAL ILLINOIS

CITY           SKY/WX    TMP DP  RH WIND       PRES   REMARKS
CARBONDALE     CLOUDY    43  39  87 W12       30.05F
6HR MIN TEMP:  43; 6HR MAX TEMP:  47;

CAIRO*         PTSUNNY   46  41  82 W10       30.07F
EFFINGHAM*     CLOUDY    45  42  91 SW12      30.01S
MARION         CLOUDY    45  43  93 W12       30.05F
MT. VERNON     CLOUDY    45  40  82 SW9       30.03F
CENTRALIA*     CLOUDY    45  42  88 W12       30.02F
SALEM*         CLOUDY    46  41  81 SW13      30.02S
METROPOLIS*    CLOUDY    50  42  75 SW10      30.05F
$$

ILZ067-068-072-073-078-083-087-091-171900-
SOUTHEAST ILLINOIS

CITY           SKY/WX    TMP DP  RH WIND       PRES   REMARKS
LAWRENCEVILLE  CLOUDY    47  42  83 W13       30.00S
FLORA*         CLOUDY    47  42  80 W13       30.02S
FAIRFIELD*     CLOUDY    46  41  82 SW6       30.02S
HARRISBURG*    CLOUDY    45  41  85 W12       30.04F
ROBINSON*      CLOUDY    45  41  88 W12       30.00S
CARMI*         CLOUDY    46  41  84 W10       30.03S
$$

ABBREVIATIONS USED IN REMARKS
   TC - TEMPERATURE IN CELSIUS
  WCI - WIND CHILL INDEX
   HX - HEAT INDEX
  VSB - VISIBILITY
$$




USA.gov is the U.S. government's official web portal to all federal, state and local government web resources and services.